This demonstration page uses our WeatherBlox Daily Observations layout. Learn more.

Left ArrowRight Arrow

39.92423, -83.80882

Hourly Observations for August 30, 2022

Temp ( °F °C ) Dew Point ( °F °C ) Humidity (%) Winds ( mph kmh ) Pressure ( in mb ) Visibility ( mi km ) Precip ( " mm )
12:56 am 00:56 Cloudy 71 21.7 71 21.7 100 100 NNW 9 15 29.95 1014 10 16 0.01 0.13
1:56 am 01:56 Cloudy 69 20.6 N/A N/A W 9 15 29.96 1015 10 16 0.01 0.13
2:16 am 02:16 Cloudy 70 21 N/A N/A NW 9 15 29.95 1014 10 16 0.00 0.00
2:27 am 02:27 Cloudy 70 21 N/A N/A WNW 9 15 29.95 1014 10 16 0.00 0.00
2:56 am 02:56 Cloudy N/A N/A N/A WNW 9 15 30.03 1017 10 16 0.00 0.00
3:07 am 03:07 Cloudy N/A N/A N/A W 8 13 30.03 1017 10 16 0.00 0.00
3:31 am 03:31 Partly Cloudy N/A N/A N/A WSW 3 6 30.01 1016 10 16 0.00 0.00
3:56 am 03:56 Clear N/A N/A N/A Calm 29.99 1016 10 16 0.00 0.00
4:56 am 04:56 Mostly Clear with Light Rain N/A N/A N/A Calm 29.97 1015 10 16 0.01 0.13
5:56 am 05:56 Mostly Clear N/A N/A N/A SW 3 6 29.98 1015 9 14 0.01 0.13
6:56 am 06:56 Mostly Cloudy N/A N/A N/A SSW 5 7 29.99 1016 8 13 0.00 0.00
7:56 am 07:56 Cloudy N/A N/A N/A SSW 3 6 30.00 1016 10 16 0.00 0.00
8:56 am 08:56 Cloudy with Rain N/A N/A N/A Calm 30.00 1016 9 14 0.01 0.25
9:56 am 09:56 Cloudy N/A N/A N/A WNW 6 9 30.02 1017 10 16 0.01 0.25
10:06 am 10:06 Cloudy 68 20 N/A N/A WNW 8 13 29.95 1014 10 16 0.00 0.00
10:32 am 10:32 Partly Cloudy 70 21 N/A N/A W 9 15 29.95 1014 10 16 0.00 0.00
10:56 am 10:56 Mostly Cloudy 69 20.6 N/A N/A W 7 11 29.95 1014 10 16 0.00 0.00
11:56 am 11:56 Cloudy 74 23.3 69 20.6 85 85 WNW 9 15 29.96 1015 10 16 0.00 0.00
12:24 pm 12:24 Mostly Cloudy 75 24 66 19 74 74 NW 7 11 29.94 1014 10 16 0.00 0.00
12:56 pm 12:56 Partly Cloudy 78 25.6 66 18.9 67 67 WNW 9 15 29.95 1014 10 16 0.00 0.00
1:56 pm 13:56 Mostly Cloudy 79 26.1 62 16.7 56 56 NW 13 20 29.94 1014 10 16 0.00 0.00
2:56 pm 14:56 Partly Cloudy 82 27.8 59 15 46 46 NW 14 22 29.88 1012 10 16 0.00 0.00
3:56 pm 15:56 Partly Cloudy 81 27.2 60 15.6 49 49 WNW 15 24 29.87 1012 10 16 0.00 0.00
4:56 pm 16:56 Mostly Cloudy 79 26.1 61 16.1 54 54 WNW 10 17 29.88 1012 10 16 0.00 0.00
5:56 pm 17:56 Mostly Sunny 80 26.7 60 15.6 51 51 WNW 12 19 29.87 1011 10 16 0.00 0.00
6:56 pm 18:56 Sunny 78 25.6 58 14.4 50 50 WNW 10 17 29.87 1012 10 16 0.00 0.00
7:56 pm 19:56 Sunny 73 22.8 59 15 61 61 WNW 7 11 29.89 1012 10 16 0.00 0.00
8:56 pm 20:56 Clear 67 19.4 59 15 76 76 W 7 11 29.93 1014 10 16 0.00 0.00
9:56 pm 21:56 Clear 65 18.3 60 15.6 84 84 W 7 11 29.96 1014 10 16 0.00 0.00
10:56 pm 22:56 Clear 63 17.2 63 17.2 100 100 WSW 6 9 29.99 1016 10 16 0.00 0.00
11:56 pm 23:56 Clear 65 18.3 61 16.1 87 87 W 7 11 30.00 1016 10 16 0.00 0.00

Powered by AerisWeather